Weather History for Waco, TX

Change the Weather History Date:

Thursday, February 7, 2013

  Actual Average Record
Temperature  
Mean Temperature 70 °F 49 °F  
Max Temperature 85 °F 60 °F 85 °F (2013)
Min Temperature 55 °F 38 °F 14 °F (1933)
Degree Days  
Heating Degree Days 0 16  
Month to date heating degree days 47 115  
Since 1 July heating degree days 1281 1523  
Cooling Degree Days 5 0  
Month to date cooling degree days 6 0  
Year to date cooling degree days 17 3  
Growing Degree Days 20 (Base 50)    
Moisture  
Dew Point 53 °F    
Average Humidity 59    
Maximum Humidity 93    
Minimum Humidity 24    
Precipitation  
Precipitation 0.00 in 0.08 in 1.00 in (1905)
Month to date precipitation T 0.56  
Year to date precipitation 5.05 2.68  
Snow  
Snow 0.00 in 0.00 in 0.30 in (1988)
Month to date snowfall 0.0 0.1  
Since 1 July snowfall T 0.5  
Snow Depth 0.00 in    
Sea Level Pressure  
Sea Level Pressure 29.92 in    
Wind  
Wind Speed 13 mph (SSW)    
Max Wind Speed 24 mph    
Max Gust Speed 31 mph    
Visibility 7 miles    
Events      
T = Trace of Precipitation, MM = Missing Value Source: NWS Daily Summary

Daily Weather History Graph

Daily Weather History Graph

Search for Another Location

Airport:

Trip Planner

Search our weather history database for the weather conditions in past years. The results will help you decide how hot, cold, wet, or windy it might be!

Date:

Astronomy

Feb. 07, 2013 Rise Set
Actual Time 7:17 AM CST 6:09 PM CST
Civil Twilight 6:52 AM CST 6:34 PM CST
Nautical Twilight 6:23 AM CST 7:03 PM CST
Astronomical Twilight 5:54 AM CST 7:31 PM CST
Moon 4:52 AM CST (2/7) 3:39 PM CST (2/7)
Length of Visible Light 11h 42m
Length of Day
10h 51m
Waning Crescent, 9% of the Moon is Illuminated
Feb 7
Waning Crescent
Feb 10
New
Feb 17
First Quarter
Feb 25
Full
Mar 4
Last Quarter

Hourly Weather History & Observations

Time (CST) Temp. Dew Point Humidity Pressure Visibility Wind Dir Wind Speed Gust Speed Precip Events Conditions
12:07 AM 60.8 °F 57.2 °F 88% 29.92 in 8.0 mi SSE 11.5 mph - N/A   Overcast
12:51 AM 61.0 °F 57.0 °F 87% 29.91 in 7.0 mi SSE 11.5 mph - N/A   Overcast
1:25 AM 60.8 °F 57.2 °F 88% 29.92 in 7.0 mi South 9.2 mph - N/A   Mostly Cloudy
1:39 AM 59.0 °F 55.4 °F 88% 29.91 in 6.0 mi SSE 9.2 mph - N/A   Overcast
1:51 AM 59.0 °F 55.9 °F 90% 29.90 in 6.0 mi SSE 8.1 mph - N/A   Overcast
2:01 AM 59.0 °F 57.2 °F 94% 29.91 in 5.0 mi SSE 9.2 mph - N/A   Overcast
2:51 AM 59.0 °F 55.9 °F 90% 29.89 in 5.0 mi SSE 8.1 mph - N/A   Overcast
2:57 AM 59.0 °F 55.4 °F 88% 29.91 in 5.0 mi SSE 9.2 mph - N/A   Overcast
3:18 AM 59.0 °F 55.4 °F 88% 29.90 in 5.0 mi SSE 9.2 mph - N/A   Overcast
3:51 AM 59.0 °F 55.9 °F 90% 29.88 in 5.0 mi South 10.4 mph - N/A   Overcast
4:12 AM 59.0 °F 55.4 °F 88% 29.90 in 6.0 mi South 11.5 mph - N/A   Overcast
4:51 AM 59.0 °F 55.0 °F 87% 29.88 in 5.0 mi South 15.0 mph - N/A   Overcast
5:51 AM 59.0 °F 55.0 °F 87% 29.90 in 4.0 mi South 13.8 mph - N/A   Overcast
6:06 AM 57.2 °F 55.4 °F 94% 29.91 in 2.5 mi South 9.2 mph - N/A   Overcast
6:33 AM 57.2 °F 55.4 °F 94% 29.92 in 1.8 mi South 8.1 mph - N/A   Overcast
6:49 AM 57.2 °F 55.4 °F 94% 29.92 in 2.0 mi South 6.9 mph - N/A   Overcast
6:51 AM 57.9 °F 55.9 °F 93% 29.91 in 2.0 mi South 6.9 mph - N/A   Overcast
7:08 AM 57.2 °F 55.4 °F 94% 29.92 in 2.0 mi SSE 6.9 mph - N/A   Overcast
7:51 AM 59.0 °F 57.0 °F 93% 29.91 in 2.5 mi South 9.2 mph - N/A   Overcast
8:15 AM 59.0 °F 57.2 °F 94% 29.92 in 3.0 mi South 10.4 mph - N/A   Overcast
8:51 AM 60.1 °F 57.0 °F 90% 29.92 in 9.0 mi SSW 13.8 mph - N/A   Overcast
9:51 AM 64.9 °F 57.0 °F 75% 29.91 in 10.0 mi South 16.1 mph - N/A   Partly Cloudy
10:42 AM 68.0 °F 57.2 °F 68% 29.93 in 10.0 mi SSW 13.8 mph 23.0 mph N/A   Mostly Cloudy
10:51 AM 68.0 °F 57.0 °F 68% 29.92 in 10.0 mi SW 16.1 mph 21.9 mph N/A   Mostly Cloudy
11:40 AM 73.4 °F 57.2 °F 57% 29.92 in 10.0 mi SSW 12.7 mph - N/A   Partly Cloudy
11:51 AM 73.9 °F 57.0 °F 55% 29.90 in 10.0 mi SSW 17.3 mph 20.7 mph N/A   Partly Cloudy
12:51 PM 78.1 °F 55.9 °F 46% 29.86 in 10.0 mi SSW 10.4 mph 19.6 mph N/A   Clear
1:51 PM 81.0 °F 52.0 °F 36% 29.83 in 10.0 mi SW 12.7 mph 20.7 mph N/A   Clear
2:51 PM 82.0 °F 52.0 °F 35% 29.81 in 10.0 mi WSW 6.9 mph - N/A   Clear
3:51 PM 82.9 °F 42.1 °F 24% 29.81 in 10.0 mi West 13.8 mph 21.9 mph N/A   Partly Cloudy
4:51 PM 79.0 °F 39.0 °F 24% 29.83 in 10.0 mi NW 19.6 mph 27.6 mph N/A   Clear
5:51 PM 73.0 °F 41.0 °F 31% 29.88 in 10.0 mi NW 12.7 mph - N/A   Clear
6:51 PM 68.0 °F 46.0 °F 45% 29.93 in 10.0 mi NW 12.7 mph - N/A   Clear
7:51 PM 64.9 °F 48.0 °F 54% 29.96 in 10.0 mi NW 13.8 mph - N/A   Clear
8:51 PM 63.0 °F 48.0 °F 58% 30.00 in 10.0 mi NNW 17.3 mph 31.1 mph N/A   Clear
9:51 PM 59.0 °F 46.0 °F 62% 30.05 in 10.0 mi NNW 13.8 mph - N/A   Clear
10:51 PM 57.0 °F 46.0 °F 67% 30.07 in 10.0 mi NNW 15.0 mph 20.7 mph N/A   Clear
11:51 PM 55.9 °F 45.0 °F 67% 30.09 in 10.0 mi NNW 20.7 mph 28.8 mph N/A   Clear